Powrót do katalogu

DELTA 1 DEB

AktywnyPO
NORAD 7836·DEBRIS·🇺🇸 United States

Wystrzelony Jul 23, 1972 z Vandenberg Space Force Base

Loading…

Następne Przeloty (najbliższe 24 godziny)

TLE

ŚwieżeSource: Space-Track

Epoka: Sep 14, 2026, 10:31 UTC

1 07836U 72058G   26257.43832437  .00000037  00000-0  33934-4 0  9998
2 07836  97.9769  63.2356 0323295  36.2725 325.9895 13.97110177651377

Śledź DELTA 1 DEB w czasie rzeczywistym z AllMySat

Download on the App Store